Regional Weather Roundup
Issued by NWS

Home | Current Version | Previous Version | Text Only | Print | Product List | Glossary On
Versions: 1 2 3 4 5 6 7 8 9 10 11 12 13 14 15 16 17 18 19 20 21 22 23 24 25 26 27 28 29 30 31 32 33 34 35 36 37 38 39 40 41 42 43 44 45 46 47 48 49 50
000
ASUS43 KDMX 191106
RWRIA

WEATHER ROUNDUP FOR IOWA
NATIONAL WEATHER SERVICE DES MOINES IA
500 AM CST THU JAN 19 2017

NOTE: "FAIR" INDICATES FEW OR NO CLOUDS BELOW 12,000 FEET WITH NO
SIGNIFICANT WEATHER AND/OR OBSTRUCTIONS TO VISIBILITY.

* - THESE STATIONS ARE NOT NWS STATIONS...THUS NOT UNDER NWS
QUALITY CONTROL.  THEY ALSO DO NOT REPORT WEATHER SUCH
AS PRECIPITATION OR FOG.

IAZ001>003-012>014-020>022-031>034-043>046-191200-
   NORTHWEST IOWA

CITY           SKY/WX    TMP DP  RH WIND       PRES   REMARKS
CARROLL *      CLOUDY    32  32 100 SE7       29.82F FOG     WCI  26
CHEROKEE *     CLEAR     33  33  99 CALM      29.81R FOG
DENISON *      PTCLDY    36  34  93 S6        29.79F FOG     WCI  31
LE MARS *      CLEAR     36  34  93 S12       29.78S WCI  27
ORANGE CITY *  CLEAR     36  34  93 S9        29.77S WCI  29
SHELDON *      CLEAR     36  36 100 S10       29.76S WCI  28
SIOUX CITY     CLEAR     34  32  92 SE10      29.77F WCI  26
SPENCER        CLEAR     34  33  96 S13       29.79S WCI  25
STORM LAKE *   CLEAR     32  32 100 S10       29.80F FOG     WCI  24
$$

IAZ055>058-069>071-079>083-090>094-191200-
   SOUTHWEST IOWA

CITY           SKY/WX    TMP DP  RH WIND       PRES   REMARKS
ATLANTIC *     PTCLDY    34  34 100 CALM      29.82F FOG
AUDUBON *      PTCLDY    34  30  86 CALM      29.83F FOG
CLARINDA *     CLEAR     34  34 100 S3        29.84F FOG
COUNCIL BLFS * CLOUDY    34  34 100 SE5       29.80F FOG     WCI  30
CRESTON *      CLEAR     34  34 100 SE7       29.85F FOG     WCI  28
HARLAN  *      CLOUDY    36  36 100 SW5       29.85F WCI  32
LAMONI         CLOUDY    35  34  96 SE7       29.85F WCI  29
RED OAK *      PTCLDY    34  34 100 S3        29.82F
SHENANDOAH *   CLEAR     36  34  93 CALM      29.83F
$$

IAZ047>049-059>061-072>074-084-191200-
   CENTRAL IOWA

CITY           SKY/WX    TMP DP  RH WIND       PRES   REMARKS
AMES           FOG       33  33 100 SE7       29.87F VSB 1/4 WCI  27
ANKENY *       FOG       32  32 100 SE6       29.89F VSB 1/4 WCI  26
BOONE *        FOG       32  32 100 SE7       29.84F VSB<1/4 WCI  26
CHARITON *     CLOUDY    32  32 100 E5        29.86F FOG     WCI  27
DES MOINES     FOG       33  32  96 E5        29.87F VSB 1/4 WCI  29
GRINNELL*      FOG       30  30  99 E8        29.90F VSB 1/4 WCI  23
KNOXVILLE *    FOG       30  30 100 E7        29.87F VSB<1/4 WCI  23
MARSHALLTOWN   FOG       32  32 100 SE7       29.89F VSB 1/4 WCI  26
NEWTON *       FOG       30  30 100 E6        29.88F VSB<1/4 WCI  24
PELLA *        FOG       31  30  98 E5        29.91S VSB 1/2 WCI  26
PERRY *        FOG       32  32 100 E7        29.85F VSB 1/4 WCI  26
$$

IAZ004>006-015-016-023>025-035-036-191200-
   NORTH CENTRAL IOWA

CITY           SKY/WX    TMP DP  RH WIND       PRES   REMARKS
ALGONA *       FOG       34  34 100 S10       29.83S VSB 3/4 WCI  26
CLARION *      FOG       32  32 100 S10       29.85F VSB 1/4 WCI  24
ESTHERVILLE    CLEAR     33  33 100 S14       29.79S FOG     WCI  23
FORT DODGE *   CLOUDY    34  30  86 S6        29.84F WCI  29
MASON CITY     FOG       32  31  96 S14       29.87F VSB 3/4 WCI  22
FOREST CITY *  MOCLDY    32  32 100 S7        29.85S FOG     WCI  26
WEBSTER CITY * FOG       32  32 100 SE10      29.83F VSB<1/4 WCI  24
IOWA FALLS *   FOG       33  32  96 S7        29.89F VSB 1/4 WCI  27
$$

IAZ007>011-017>019-026>030-037>042-050>054-066-191200-
   NORTHEAST IOWA

CITY           SKY/WX    TMP DP  RH WIND       PRES   REMARKS
CEDAR RAPIDS   FOG       31  31 100 E6        29.92F VSB 1/4 WCI  25
CHARLES CITY * FOG       32  32 100 S12       29.89F VSB 1/4 WCI  23
CLINTON *      CLOUDY    28  28 100 E7        29.97F FOG     WCI  21
DECORAH *      FOG       32  32 100 CALM      29.90S VSB 1
DUBUQUE        FOG       32  32 100 S7        29.94F VSB 1/4 WCI  26
MONTICELLO *   FOG       32  32 100 CALM      29.95F VSB<1/4
OELWEIN *      FOG       32  32 100 S12       29.92F VSB<1/4 WCI  23
WATERLOO       FOG       32  31  96 S8        29.91F VSB 1/4 WCI  25
$$

IAZ064-065-067-068-078-191200-
   EAST CENTRAL IOWA

CITY           SKY/WX    TMP DP  RH WIND       PRES   REMARKS
DAVENPORT      CLEAR     30  27  88 SE9       29.96F FOG     WCI  22
IOWA CITY      FOG       30  29  96 CALM      29.97F VSB 1/4
MUSCATINE *    FOG       28  27  93 CALM      29.97S VSB 1/4
QUAD CITIES    CLEAR     27  24  89 E6        29.96S FOG     WCI  20
$$

IAZ062-063-075>077-085>089-095>099-191200-
   SOUTHEAST IOWA

CITY           SKY/WX    TMP DP  RH WIND       PRES   REMARKS
BURLINGTON     CLOUDY    31  31 100 S5        29.95F FOG     WCI  26
FAIRFIELD *    CLEAR     30  28  93 E6        29.91F FOG     WCI  24
FORT MADISON * CLOUDY    36  34  93 SE7       29.94F WCI  30
KEOKUK *       PTCLDY    34  34 100 SE6       29.92F FOG     WCI  29
OSKALOOSA *    FOG       29  29 100 E7        29.90F VSB 1/4 WCI  22
OTTUMWA        MOCLDY    31  29  92 E7        29.90F FOG     WCI  24
WASHINGTON *   CLEAR     28  28 100 E6        29.94F FOG     WCI  22
$$

ABBREVIATIONS USED IN REMARKS
   TC - TEMPERATURES IN CELSIUS
  WCI - WIND CHILL INDEX
   HX - HEAT INDEX
  VSB - VISIBILITY
$$





USA.gov is the U.S. government's official web portal to all federal, state and local government web resources and services.